This is the latest recevied weather packets stored in our database for station/object KJ5EHN. If no packets are shown the sender has not sent any weather packets the latest 10 day(s).
| Time | Temp. | Humidity | Pressure | Rain* | Wind** | Luminosity | Snow |
|---|---|---|---|---|---|---|---|
| 1777700515 | 11.67° C | 86% | 1019.2 hPa | 0 mm | - | - | - |
| 1777700212 | 12.22° C | 86% | 1019.1 hPa | 0 mm | - | - | - |
| 1777699909 | 12.22° C | 85% | 1019.2 hPa | 0 mm | - | - | - |
| 1777699607 | 12.78° C | 84% | 1019.1 hPa | 0 mm | - | - | - |
| 1777699305 | 12.78° C | 84% | 1019 hPa | 0 mm | - | - | - |
| 1777699003 | 12.22° C | 85% | 1019 hPa | 0 mm | - | - | - |
| 1777698701 | 11.67° C | 87% | 1019 hPa | 0 mm | - | - | - |
| 1777698397 | 11.67° C | 87% | 1018.6 hPa | 0 mm | - | - | - |
| 1777698093 | 11.67° C | 87% | 1019 hPa | 0 mm | - | - | - |
| 1777697790 | 12.22° C | 86% | 1019 hPa | 0 mm | - | - | - |
| 1777697487 | 12.22° C | 86% | 1018.8 hPa | 0 mm | - | - | - |
| 1777697184 | 12.22° C | 85% | 1018.8 hPa | 0 mm | - | - | - |
| 1777696880 | 12.22° C | 85% | 1018.8 hPa | 0 mm | - | - | - |
| 1777696579 | 12.22° C | 85% | 1018.7 hPa | 0 mm | - | - | - |
| 1777696275 | 12.78° C | 84% | 1018.6 hPa | 0 mm | - | - | - |
| 1777695975 | 12.78° C | 83% | 1018.6 hPa | 0 mm | - | - | - |
| 1777695672 | 13.33° C | 82% | 1018.6 hPa | 0 mm | - | - | - |
| 1777695370 | 13.33° C | 82% | 1018.6 hPa | 0 mm | - | - | - |
| 1777695067 | 13.33° C | 83% | 1018.7 hPa | 0 mm | - | - | - |
| 1777694764 | 13.33° C | 82% | 1018.8 hPa | 0 mm | - | - | - |
| 1777694461 | 13.89° C | 81% | 1018.8 hPa | 0 mm | - | - | - |
| 1777694156 | 13.33° C | 81% | 1018.9 hPa | 0 mm | - | - | - |
| 1777693854 | 13.33° C | 81% | 1018.8 hPa | 0 mm | - | - | - |
| 1777693552 | 13.89° C | 82% | 1018.8 hPa | 0 mm | - | - | - |
| 1777693250 | 13.89° C | 81% | 1018.5 hPa | 0 mm | - | - | - |
* Rain latest hour (hover to see other rain measurements)
** Current wind speed in m/s (hover to see current wind gust speed)